Location: Deuil
(48.9767°N, 2.3272°E)
Time: 23:55:30
(UTC+00:00)

Tiangong - Visible Passes

Search period start: 10 June 2023 00:00
Search period end: 20 June 2023 00:00
Orbit: 386 x 390 km, 41.5° (Epoch: 10 June)

Date Brightness Start Highest point End Pass type
(mag) Time Alt. Az. Time Alt. Az. Time Alt. Az.
10 Jun -0.6 01:47:53 21° S 01:47:53 21° S 01:50:05 10° SE visible
11 Jun -0.5 02:24:24 16° SW 02:25:25 18° S 02:27:44 10° SE visible
12 Jun 0.2 01:28:55 12° SE 01:28:55 12° SE 01:29:23 10° SE visible
12 Jun 0.0 03:01:59 10° SW 03:03:07 11° SSW 03:04:16 10° S visible
13 Jun 0.2 02:06:14 11° SSE 02:06:14 11° SSE 02:06:34 10° SSE visible
15 Jun 0.0 21:30:45 10° SSW 21:31:26 12° S 21:31:26 12° S visible
16 Jun 0.0 22:07:46 10° SW 22:08:37 14° SSW 22:08:37 14° SSW visible
17 Jun -0.5 21:09:16 10° SW 21:11:33 18° S 21:12:57 14° SE visible
18 Jun -0.7 21:46:38 10° SW 21:49:08 21° S 21:49:13 21° S visible
19 Jun -0.6 20:47:56 10° SW 20:50:23 21° S 20:52:50 10° SE visible
19 Jun 0.1 22:24:28 10° WSW 22:25:16 14° SW 22:25:16 14° SW visible
